Flag for Mongolia Weather past 2 weeks in Ulaanbaatar, Mongolia

Now
21 °F

Clear.


Feels Like: 16 °F
Forecast: 8 / 43 °F
Wind: 3 mph from West

Location: Ulan-Bator

Current Time: Apr 1, 2015 at 7:14:04 AM

Latest Report: Apr 1, 2015 at 6:30 AM


Visibility: 10 mi

Pressure: 30.09 "Hg

Humidity: 74%

Dew point: 14 °F

Location of UlaanbaatarLocation

Historic Weather in Ulaanbaatar — Graph

°F

Ulaanbaatar temperature yesterday

Maximum temperature yesterday: 39 °F (at 6:00 PM)
Minimum temperature yesterday: 14 °F (at 5:30 AM)
Average temperature yesterday: 26 °F

Past Weeks' High & Low Weather Summary

 TemperatureHumidityPressure
High63 °F (Mar 25, 4:00 PM)100% (Mar 27, 10:30 AM)30.39 "Hg (Mar 27, 10:30 AM)
Low-9 °F (Mar 17, 5:00 AM)9% (Mar 24, 6:30 PM)29.62 "Hg (Mar 28, 8:30 PM)
Average26 °F56%30.00 "Hg
* Reported Mar 17 5:00 AM — Apr 1 6:00 AM, Ulaanbaatar, Weather by CustomWeather, © 2015

Note: Actual official high and low records may vary slightly from our data, if they occured in-between our weather recording intervals... More about our weather records

Advertising

Ulaanbaatar weather history for previous 24 hours

 ConditionsComfort  
Time TempWeatherWind HumidityBarometerVisibility
6:00 AM
Wed, Apr 1
21 °FClear.No wind80%30.09 "Hg10 mi
5:30 AM21 °FPassing clouds.1 mph80%30.09 "HgN/A
5:00 AM21 °FPassing clouds.No wind86%30.09 "HgN/A
4:00 AM21 °FPassing clouds.No wind80%30.12 "HgN/A
3:00 AM23 °FPassing clouds.No wind80%30.15 "HgN/A
2:00 AM25 °FPassing clouds.1 mph69%30.15 "HgN/A
1:30 AM25 °FPassing clouds.1 mph74%30.15 "HgN/A
1:00 AM25 °FPassing clouds.No wind74%30.15 "HgN/A
12:30 AM25 °FPassing clouds.No wind74%30.12 "HgN/A
12:00 AM27 °FPassing clouds.No wind64%30.15 "HgN/A
11:30 PM
Tue, Mar 31
27 °FPassing clouds.No wind74%30.15 "HgN/A
11:00 PM27 °FPassing clouds.1 mph74%30.12 "HgN/A
10:30 PM27 °FPassing clouds.No wind69%30.15 "HgN/A
10:00 PM28 °FPassing clouds.6 mph64%30.12 "HgN/A
9:30 PM28 °FPassing clouds.3 mph69%30.12 "HgN/A
9:00 PM28 °FPartly sunny.3 mph69%30.12 "HgN/A
8:30 PM30 °FPartly sunny.3 mph64%30.09 "HgN/A
8:00 PM36 °FSunny.1 mph44%30.09 "Hg10 mi
7:30 PM37 °FSunny.3 mph28%30.09 "Hg10 mi
7:00 PM37 °FPassing clouds.6 mph23%30.12 "HgN/A
6:30 PM37 °FSunny.3 mph22%30.12 "Hg10 mi
6:00 PM39 °FSunny.1 mph22%30.12 "Hg10 mi
5:30 PM37 °FSunny.1 mph23%30.12 "Hg10 mi
5:00 PM37 °FSunny.3 mph22%30.15 "Hg10 mi
4:30 PM36 °FSunny.1 mph21%30.15 "Hg10 mi
4:00 PM36 °FSunny.1 mph23%30.18 "Hg10 mi
3:30 PM36 °FSunny.1 mph21%30.18 "Hg10 mi
3:00 PM34 °FSunny.1 mph29%30.21 "Hg10 mi
2:30 PM32 °FSunny.1 mph37%30.21 "Hg10 mi
2:00 PM30 °FSunny.1 mph31%30.24 "Hg10 mi
1:30 PM30 °FSunny.1 mph34%30.24 "Hg10 mi
1:00 PM28 °FSunny.1 mph40%30.27 "Hg10 mi
12:30 PM27 °FPassing clouds.3 mph50%30.27 "HgN/A
12:00 PM25 °FSunny.3 mph50%30.27 "Hg10 mi
11:30 AM23 °FSunny.1 mph50%30.30 "Hg10 mi
11:00 AM23 °FSunny.1 mph54%30.27 "Hg10 mi
10:30 AM21 °FSunny.No wind58%30.27 "Hg10 mi
10:00 AM19 °FSunny.1 mph63%30.27 "Hg10 mi
9:30 AM19 °FSunny.No wind58%30.27 "Hg10 mi
8:30 AM16 °FClear.1 mph67%30.24 "Hg10 mi
8:00 AM14 °FClear.6 mph73%30.24 "Hg10 mi
7:30 AM14 °FClear.6 mph73%30.24 "Hg10 mi
7:00 AM14 °FClear.3 mph79%30.24 "Hg10 mi
Weather by CustomWeather, © 2015

See weather overviewHow to use our weather pages